Location: ????????
(60.4333°N, 46.4710°E)
Time: 04:33:10
(UTC+00:00)

NOSS 0 Rocket - Pass Details

Date: 25 November 2020
Orbit: 937 x 952 km, 70.0° (Epoch: 19 January)

Event Time Altitude Azimuth Distance (km) Brightness Sun altitude
Rises 16:02:53 0° 238° (WSW) 3,625 7.7 -28.1°
Reaches altitude 10° 16:05:27 10° 242° (WSW) 2,681 6.9 -28.4°
Maximum altitude 16:11:38 62° 323° (NW) 1,067 4.2 -29.2°
Enters shadow 16:12:55 51° 11° (N) 1,183 4.3 -29.3°
